WIZ794 LPPT-LXGB

Flight info

Callsign WIZ794
Flight time 0h 48m
Altitude 31000
Route DUZOP DCT ORTOP N726 BAMBA UN726 TNR UM985 BARPA
Aircraft A321/M-SDE3FGHIRWY/LB1

Departure

Time 2026-04-29 10:14
Airport Lisbon Humberto Delgado Airport (LPPT)

Arrival

Time 2026-04-29 11:02
Airport Gibraltar Airport (LXGB)
Time Latitude Longitude Altitude Speed Heading
2026-04-29 09:50 38.76937 -9.13070 357 ft 0 kts 78°
2026-04-29 09:59 38.76935 -9.13082 360 ft 4 kts 78°
2026-04-29 09:59 38.76930 -9.13115 359 ft 4 kts 68°
2026-04-29 09:59 38.76915 -9.13140 361 ft 4 kts 21°
2026-04-29 10:00 38.76896 -9.13143 352 ft 0 kts 348°
2026-04-29 10:03 38.76899 -9.13144 352 ft 1 kts 348°
2026-04-29 10:04 38.76909 -9.13147 357 ft 3 kts 348°
2026-04-29 10:04 38.76971 -9.13164 354 ft 13 kts 348°
2026-04-29 10:04 38.77061 -9.13188 351 ft 14 kts 348°
2026-04-29 10:04 38.77158 -9.13215 355 ft 15 kts 347°
2026-04-29 10:05 38.77261 -9.13242 351 ft 15 kts 348°
2026-04-29 10:05 38.77369 -9.13267 356 ft 16 kts 350°
2026-04-29 10:05 38.77482 -9.13294 355 ft 17 kts 348°
2026-04-29 10:05 38.77596 -9.13321 352 ft 17 kts 355°
2026-04-29 10:06 38.77714 -9.13335 355 ft 17 kts 347°
2026-04-29 10:06 38.77834 -9.13368 352 ft 18 kts 349°
2026-04-29 10:06 38.77956 -9.13399 359 ft 18 kts 348°
2026-04-29 10:06 38.78062 -9.13403 357 ft 15 kts 20°
2026-04-29 10:07 38.78163 -9.13348 357 ft 16 kts 22°
2026-04-29 10:07 38.78269 -9.13291 355 ft 17 kts 22°
2026-04-29 10:07 38.78381 -9.13234 356 ft 18 kts 21°
2026-04-29 10:07 38.78501 -9.13240 358 ft 18 kts 338°
2026-04-29 10:08 38.78538 -9.13370 353 ft 13 kts 229°
2026-04-29 10:08 38.78479 -9.13406 356 ft 0 kts 202°
2026-04-29 10:13 38.78387 -9.13455 360 ft 46 kts 202°
2026-04-29 10:13 38.77878 -9.13729 363 ft 111 kts 202°
2026-04-29 10:13 38.76971 -9.14214 364 ft 171 kts 204°
2026-04-29 10:14 38.75870 -9.14818 1093 ft 166 kts 205°
2026-04-29 10:14 38.74807 -9.15389 1757 ft 166 kts 206°
2026-04-29 10:14 38.73723 -9.15966 2254 ft 176 kts 206°
2026-04-29 10:14 38.72533 -9.16606 2454 ft 196 kts 205°
2026-04-29 10:15 38.71215 -9.17311 2634 ft 212 kts 205°
2026-04-29 10:15 38.69790 -9.18067 2787 ft 232 kts 204°
2026-04-29 10:15 38.68259 -9.18879 3226 ft 247 kts 204°
2026-04-29 10:15 38.66560 -9.19418 3885 ft 258 kts 181°
2026-04-29 10:16 38.64789 -9.18922 4603 ft 269 kts 154°
2026-04-29 10:16 38.63728 -9.18093 5085 ft 271 kts 150°
2026-04-29 10:16 38.61569 -9.16462 6274 ft 268 kts 153°
2026-04-29 10:16 38.59927 -9.15310 6992 ft 270 kts 154°
2026-04-29 10:17 38.58265 -9.14161 7686 ft 273 kts 154°
2026-04-29 10:17 38.56590 -9.12998 8382 ft 275 kts 154°
2026-04-29 10:17 38.54905 -9.11819 9117 ft 277 kts 154°
2026-04-29 10:17 38.53205 -9.10620 9801 ft 281 kts 154°
2026-04-29 10:18 38.51465 -9.09387 10152 ft 296 kts 154°
2026-04-29 10:18 38.49595 -9.08062 10273 ft 318 kts 154°
2026-04-29 10:18 38.47600 -9.06650 10453 ft 336 kts 154°
2026-04-29 10:18 38.45534 -9.05179 10944 ft 343 kts 154°
2026-04-29 10:19 38.43439 -9.03678 11525 ft 347 kts 154°
2026-04-29 10:19 38.41325 -9.02162 12134 ft 350 kts 154°
2026-04-29 10:19 38.39190 -9.00635 12755 ft 354 kts 154°
2026-04-29 10:19 38.37033 -8.99098 13377 ft 357 kts 154°
2026-04-29 10:20 38.34855 -8.97552 13948 ft 360 kts 155°
2026-04-29 10:20 38.32654 -8.95990 14500 ft 364 kts 155°
2026-04-29 10:20 38.30430 -8.94414 15013 ft 368 kts 156°
2026-04-29 10:20 38.28180 -8.92819 15515 ft 372 kts 156°
2026-04-29 10:21 38.25904 -8.91204 16051 ft 376 kts 156°
2026-04-29 10:21 38.23608 -8.89577 16591 ft 379 kts 157°
2026-04-29 10:21 38.21292 -8.87939 17139 ft 383 kts 157°
2026-04-29 10:21 38.18955 -8.86289 17679 ft 386 kts 157°
2026-04-29 10:22 38.16633 -8.84648 18188 ft 389 kts 158°
2026-04-29 10:22 38.14256 -8.82969 18651 ft 393 kts 158°
2026-04-29 10:22 38.11860 -8.81275 19098 ft 396 kts 158°
2026-04-29 10:22 38.09438 -8.79564 19538 ft 400 kts 158°
2026-04-29 10:23 38.06993 -8.77839 19987 ft 404 kts 158°
2026-04-29 10:23 38.04525 -8.76105 20421 ft 407 kts 159°
2026-04-29 10:23 38.02033 -8.74356 20844 ft 411 kts 159°
2026-04-29 10:23 37.99518 -8.72589 21245 ft 415 kts 159°
2026-04-29 10:24 37.96983 -8.70809 21691 ft 417 kts 159°
2026-04-29 10:24 37.94439 -8.69020 22148 ft 420 kts 159°
2026-04-29 10:24 37.91876 -8.67220 22554 ft 423 kts 159°
2026-04-29 10:24 37.89291 -8.65405 22940 ft 426 kts 159°
2026-04-29 10:25 37.86687 -8.63581 23262 ft 430 kts 160°
2026-04-29 10:25 37.84052 -8.61740 23579 ft 434 kts 160°
2026-04-29 10:25 37.81400 -8.59888 23880 ft 437 kts 160°
2026-04-29 10:25 37.78724 -8.58022 24196 ft 440 kts 160°
2026-04-29 10:26 37.76035 -8.56147 24507 ft 443 kts 160°
2026-04-29 10:26 37.73331 -8.54260 24825 ft 446 kts 160°
2026-04-29 10:26 37.70604 -8.52360 25137 ft 448 kts 160°
2026-04-29 10:26 37.67866 -8.50455 25455 ft 451 kts 160°
2026-04-29 10:27 37.62339 -8.46614 25978 ft 457 kts 159°
2026-04-29 10:27 37.59542 -8.44673 26250 ft 460 kts 159°
2026-04-29 10:27 37.56729 -8.42721 26551 ft 463 kts 159°
2026-04-29 10:28 37.53898 -8.40757 26865 ft 465 kts 159°
2026-04-29 10:28 37.51057 -8.38789 27149 ft 467 kts 159°
2026-04-29 10:28 37.48199 -8.36815 27433 ft 470 kts 159°
2026-04-29 10:28 37.45327 -8.34831 27724 ft 472 kts 159°
2026-04-29 10:29 37.42444 -8.32836 28032 ft 474 kts 159°
2026-04-29 10:29 37.39552 -8.30836 28303 ft 475 kts 158°
2026-04-29 10:29 37.36648 -8.28832 28597 ft 477 kts 158°
2026-04-29 10:29 37.33728 -8.26820 28887 ft 480 kts 158°
2026-04-29 10:30 37.30835 -8.24830 29161 ft 482 kts 158°
2026-04-29 10:30 37.27894 -8.22805 29530 ft 482 kts 158°
2026-04-29 10:30 37.24958 -8.20786 29933 ft 481 kts 159°
2026-04-29 10:30 37.22030 -8.18772 30273 ft 480 kts 159°
2026-04-29 10:31 37.19105 -8.16763 30588 ft 479 kts 158°
2026-04-29 10:31 37.16184 -8.14762 30857 ft 478 kts 158°
2026-04-29 10:31 37.13283 -8.12781 30918 ft 471 kts 158°
2026-04-29 10:32 37.07589 -8.08883 30922 ft 464 kts 158°
2026-04-29 10:32 37.01928 -8.05017 30920 ft 463 kts 159°
2026-04-29 10:33 36.96265 -8.01160 30886 ft 463 kts 158°
2026-04-29 10:33 36.90603 -7.97317 30917 ft 463 kts 158°
2026-04-29 10:34 36.84944 -7.93483 30924 ft 463 kts 158°
2026-04-29 10:34 36.79287 -7.89648 30932 ft 463 kts 158°
2026-04-29 10:35 36.73634 -7.85812 30940 ft 463 kts 158°
2026-04-29 10:35 36.67975 -7.81981 30940 ft 463 kts 158°
2026-04-29 10:36 36.63270 -7.78818 30945 ft 463 kts 158°
2026-04-29 10:36 36.57605 -7.75012 30950 ft 463 kts 158°
2026-04-29 10:37 36.51936 -7.71198 30956 ft 463 kts 158°
2026-04-29 10:37 36.46263 -7.67384 30932 ft 463 kts 158°
2026-04-29 10:38 36.40591 -7.63583 30943 ft 463 kts 158°
2026-04-29 10:38 36.34919 -7.59787 30952 ft 463 kts 158°
2026-04-29 10:39 36.29246 -7.55995 30960 ft 463 kts 158°
2026-04-29 10:39 36.23578 -7.52220 30946 ft 463 kts 158°
2026-04-29 10:40 36.17906 -7.48454 30958 ft 463 kts 158°
2026-04-29 10:40 36.12238 -7.44684 30959 ft 462 kts 158°
2026-04-29 10:41 36.06742 -7.40500 30956 ft 471 kts 145°
2026-04-29 10:41 36.04402 -7.37618 30956 ft 479 kts 134°
2026-04-29 10:41 36.02498 -7.34222 30938 ft 485 kts 123°
2026-04-29 10:41 36.01108 -7.30401 30922 ft 491 kts 111°
2026-04-29 10:42 36.00222 -7.26318 30930 ft 493 kts 107°
2026-04-29 10:42 35.98562 -7.18096 30938 ft 494 kts 107°
2026-04-29 10:43 35.96861 -7.09850 30960 ft 502 kts 107°
2026-04-29 10:43 35.95112 -7.01450 30595 ft 507 kts 107°
2026-04-29 10:43 35.94229 -6.97203 29524 ft 514 kts 107°
2026-04-29 10:44 35.93344 -6.92938 28865 ft 511 kts 107°
2026-04-29 10:44 35.92469 -6.88713 28207 ft 507 kts 107°
2026-04-29 10:44 35.91599 -6.84506 27525 ft 505 kts 107°
2026-04-29 10:44 35.90736 -6.80328 26941 ft 500 kts 106°
2026-04-29 10:45 35.89881 -6.76192 26362 ft 495 kts 106°
2026-04-29 10:45 35.89033 -6.72097 25775 ft 490 kts 106°
2026-04-29 10:45 35.88178 -6.68017 24907 ft 493 kts 106°
2026-04-29 10:45 35.87329 -6.63991 24253 ft 490 kts 106°
2026-04-29 10:46 35.86472 -6.59939 23665 ft 486 kts 106°
2026-04-29 10:46 35.85626 -6.55928 23016 ft 481 kts 106°
2026-04-29 10:46 35.84789 -6.51951 22379 ft 476 kts 106°
2026-04-29 10:46 35.83959 -6.48027 21764 ft 471 kts 106°
2026-04-29 10:47 35.83143 -6.44150 21160 ft 465 kts 105°
2026-04-29 10:47 35.82389 -6.40295 20571 ft 460 kts 104°
2026-04-29 10:47 35.81701 -6.36469 19982 ft 455 kts 103°
2026-04-29 10:47 35.81169 -6.32649 19407 ft 451 kts 94°
2026-04-29 10:48 35.81344 -6.28820 18861 ft 447 kts 79°
2026-04-29 10:48 35.82041 -6.25106 18302 ft 443 kts 76°
2026-04-29 10:48 35.82769 -6.21435 17711 ft 439 kts 76°
2026-04-29 10:48 35.83501 -6.17798 17144 ft 435 kts 76°
2026-04-29 10:49 35.84227 -6.14204 16621 ft 431 kts 76°
2026-04-29 10:49 35.84944 -6.10637 16109 ft 426 kts 77°
2026-04-29 10:49 35.85648 -6.07110 15597 ft 422 kts 77°
2026-04-29 10:49 35.86339 -6.03617 15097 ft 417 kts 77°
2026-04-29 10:50 35.87019 -6.00156 14584 ft 413 kts 77°
2026-04-29 10:50 35.87693 -5.96733 14067 ft 409 kts 78°
2026-04-29 10:50 35.88362 -5.93342 13454 ft 402 kts 78°
2026-04-29 10:50 35.89022 -5.89996 12677 ft 401 kts 78°
2026-04-29 10:51 35.89675 -5.86671 12126 ft 397 kts 78°
2026-04-29 10:51 35.90321 -5.83376 11546 ft 394 kts 78°
2026-04-29 10:51 35.90960 -5.80107 10997 ft 390 kts 78°
2026-04-29 10:51 35.91593 -5.76861 10429 ft 387 kts 78°
2026-04-29 10:52 35.92213 -5.73688 9908 ft 384 kts 78°
2026-04-29 10:52 35.92836 -5.70498 9309 ft 381 kts 78°
2026-04-29 10:52 35.93452 -5.67344 8752 ft 376 kts 78°
2026-04-29 10:52 35.94060 -5.64219 8146 ft 372 kts 79°
2026-04-29 10:53 35.94659 -5.61129 7587 ft 369 kts 79°
2026-04-29 10:53 35.95249 -5.58069 7001 ft 366 kts 79°
2026-04-29 10:53 35.95834 -5.55032 6454 ft 362 kts 79°
2026-04-29 10:53 35.96415 -5.52019 5896 ft 360 kts 79°
2026-04-29 10:54 35.96991 -5.49027 5348 ft 357 kts 79°
2026-04-29 10:54 35.97563 -5.46060 4819 ft 353 kts 78°
2026-04-29 10:54 35.98131 -5.43117 4197 ft 352 kts 78°
2026-04-29 10:54 35.98694 -5.40184 3650 ft 349 kts 78°
2026-04-29 10:55 35.99241 -5.37319 3466 ft 336 kts 78°
2026-04-29 10:55 35.99761 -5.34566 3344 ft 322 kts 79°
2026-04-29 10:55 36.00234 -5.31918 3217 ft 309 kts 79°
2026-04-29 10:55 36.00656 -5.29368 3085 ft 297 kts 79°
2026-04-29 10:56 36.01122 -5.26936 2994 ft 285 kts 72°
2026-04-29 10:56 36.01749 -5.24683 3002 ft 271 kts 70°
2026-04-29 10:56 36.02372 -5.22548 3002 ft 257 kts 70°
2026-04-29 10:56 36.03156 -5.20611 2952 ft 251 kts 49°
2026-04-29 10:57 36.04471 -5.19234 2665 ft 247 kts 33°
2026-04-29 10:57 36.05906 -5.18137 2513 ft 234 kts 25°
2026-04-29 10:57 36.07353 -5.17336 2306 ft 224 kts 21°
2026-04-29 10:57 36.08790 -5.16616 1927 ft 222 kts 20°
2026-04-29 10:58 36.10243 -5.16022 1606 ft 218 kts
2026-04-29 10:58 36.11731 -5.16109 1511 ft 209 kts 352°
2026-04-29 10:58 36.13102 -5.16355 1521 ft 193 kts 348°
2026-04-29 10:58 36.14285 -5.17032 1508 ft 186 kts 323°
2026-04-29 10:59 36.15267 -5.18049 1504 ft 183 kts 307°
2026-04-29 10:59 36.15906 -5.19362 1504 ft 180 kts 286°
2026-04-29 10:59 36.16092 -5.20903 1428 ft 179 kts 265°
2026-04-29 10:59 36.15925 -5.22406 1348 ft 178 kts 260°
2026-04-29 11:00 36.15735 -5.23923 1363 ft 178 kts 260°
2026-04-29 11:00 36.15567 -5.25439 1373 ft 173 kts 263°
2026-04-29 11:00 36.15470 -5.26829 1362 ft 155 kts 264°
2026-04-29 11:00 36.15394 -5.28130 1076 ft 149 kts 263°
2026-04-29 11:01 36.15315 -5.29393 816 ft 147 kts 264°
2026-04-29 11:01 36.15271 -5.30653 598 ft 147 kts 266°
2026-04-29 11:01 36.15232 -5.31913 401 ft 146 kts 264°
2026-04-29 11:01 36.15185 -5.33169 175 ft 146 kts 265°
2026-04-29 11:02 36.15136 -5.34404 19 ft 136 kts 265°
2026-04-29 11:02 36.15105 -5.35263 20 ft 52 kts 268°
2026-04-29 11:02 36.15092 -5.35639 17 ft 38 kts 268°
2026-04-29 11:02 36.15076 -5.35848 17 ft 17 kts 242°
2026-04-29 11:03 36.15075 -5.35950 16 ft 9 kts 339°
2026-04-29 11:03 36.15095 -5.35919 16 ft 6 kts 92°
2026-04-29 11:03 36.15088 -5.35809 17 ft 20 kts 87°
2026-04-29 11:03 36.15095 -5.35630 17 ft 21 kts 89°
2026-04-29 11:04 36.15101 -5.35457 22 ft 20 kts 87°
2026-04-29 11:04 36.15107 -5.35283 20 ft 20 kts 88°
2026-04-29 11:04 36.15113 -5.35107 20 ft 21 kts 88°
2026-04-29 11:04 36.15118 -5.34926 19 ft 21 kts 88°
2026-04-29 11:05 36.15127 -5.34740 18 ft 22 kts 85°
2026-04-29 11:05 36.15194 -5.34681 18 ft 8 kts 10°
2026-04-29 11:05 36.15234 -5.34630 18 ft 8 kts 37°
2026-04-29 11:05 36.15292 -5.34628 18 ft 9 kts 356°
2026-04-29 11:06 36.15297 -5.34628 18 ft 0 kts 356°